This is the latest recevied weather packets stored in our database for station/object ALANSN-2. If no packets are shown the sender has not sent any weather packets the latest 10 day(s).
| Time | Temp. | Humidity | Pressure | Rain* | Wind** | Luminosity | Snow |
|---|---|---|---|---|---|---|---|
| 1777633805 | 0° C | 95% | 1022.9 hPa | 0 mm | - | 26 W/m² | - |
| 1777633505 | 0° C | 95% | 1023 hPa | 0 mm | - | 22 W/m² | - |
| 1777632605 | -1.11° C | 97% | 1022.9 hPa | 0 mm | - | 10 W/m² | - |
| 1777632005 | -1.11° C | 97% | 1022.8 hPa | 0 mm | - | 6 W/m² | - |
| 1777631706 | -1.11° C | 97% | 1022.8 hPa | 0 mm | - | 3 W/m² | - |
| 1777630805 | -1.67° C | 97% | 1022.7 hPa | 0 mm | - | 0 W/m² | - |
| 1777630505 | -1.67° C | 97% | 1022.4 hPa | 0 mm | - | 0 W/m² | - |
| 1777630206 | -1.67° C | 96% | 1022.5 hPa | 0 mm | - | 0 W/m² | - |
| 1777628105 | -1.11° C | 96% | 1022.7 hPa | 0 mm | - | 0 W/m² | - |
| 1777627806 | -1.11° C | 95% | 1022.6 hPa | 0 mm | - | 0 W/m² | - |
| 1777627205 | -1.11° C | 95% | 1022.5 hPa | 0 mm | - | 0 W/m² | - |
| 1777626605 | -0.56° C | 95% | 1022.6 hPa | 0 mm | - | 0 W/m² | - |
| 1777626006 | -0.56° C | 94% | 1022.5 hPa | 0 mm | - | 0 W/m² | - |
| 1777625705 | -0.56° C | 94% | 1022.5 hPa | 0 mm | - | 0 W/m² | - |
| 1777625405 | 0° C | 93% | 1022.4 hPa | 0 mm | - | 0 W/m² | - |
| 1777624505 | 0° C | 91% | 1022.5 hPa | 0 mm | - | 0 W/m² | - |
| 1777623905 | 0.56° C | 90% | 1022.5 hPa | 0 mm | - | 0 W/m² | - |
| 1777623602 | 0.56° C | 90% | 1022.4 hPa | 0 mm | - | 0 W/m² | - |
| 1777623002 | 0.56° C | 88% | 1022.3 hPa | 0 mm | - | 0 W/m² | - |
| 1777622405 | 1.11° C | 87% | 1022.4 hPa | 0 mm | - | 0 W/m² | - |
| 1777621205 | 1.11° C | 86% | 1022.4 hPa | 0 mm | - | 0 W/m² | - |
| 1777620906 | 1.11° C | 87% | 1022.3 hPa | 0 mm | - | 0 W/m² | - |
| 1777619705 | 1.67° C | 87% | 1022.4 hPa | 0 mm | - | 0 W/m² | - |
| 1777619405 | 1.11° C | 88% | 1022.4 hPa | 0 mm | - | 0 W/m² | - |
| 1777619105 | 1.11° C | 89% | 1022.4 hPa | 0 mm | - | 0 W/m² | - |
* Rain latest hour (hover to see other rain measurements)
** Current wind speed in m/s (hover to see current wind gust speed)